{"data":{"norad_id":69373,"epoch":"2026-09-20T02:33:08.087040Z","epoch_age_seconds":63054,"freshness":"FRESH","line1":"1 69373U 26123W   26263.10634360  .00025903  00000+0  77417-3 0  9991","line2":"2 69373  53.1588 143.2269 0001564 112.8726 247.2441 15.34438522 16817","mean_motion":15.34438522,"eccentricity":0.0001564,"inclination_deg":53.1588,"raan_deg":143.2269,"arg_perigee_deg":112.8726,"mean_anomaly_deg":247.2441,"bstar":0.00077417,"rev_number":1681,"period_min":93.845402038206,"perigee_km":461.51885759346,"apogee_km":463.65863660715,"semimajor_km":6840.7257471003,"source":"CELESTRAK","updated_at":"2026-09-20T09:00:44.168526Z"}}